FENGYUN 1C DEB, 32093

Orbit data source: Space-Track

FENGYUN 1C DEB, 32093 is space debris in SSO originally from a launch on Mon, 10 May 1999 UTC launched from the Taiyaun Space Center, China (TSC). Fengyun 1C debris stems from the Chinese weather satellite Fengyun-1C, which was intentionally destroyed by a Chinese anti-satellite missile in 2007. This event dramatically increased the amount of space debris, with thousands of trackable fragments posing hazards to satellites and human spaceflight. The Fengyun 1C debris cloud has become a focal point in discussions about space sustainability and the need for international regulations to prevent the creation of new debris.

Loading next visibility...
Identifier
32093, 1999-025CQK
Orbit
SSO
Country
Flag of CNCN / PRC
Related business
Manufacturer
Unknown
Mission
Spacecraft
Bus & Motor
Unknown
Mass
Unknown
Launch date (UTC)
1999-05-10 (27 years ago)
Launch vehicle
Unknown
Launch site
Taiyaun Space Center, China (TSC)
Object type
Payload
Rocket body
Debris
Shape & HBR
Unknown shape, 0.1 m
Radar Cross Section
Small (<0.1 m²)

Expand to show TLE details & history
Last TLE update: 4 days ago

TLE from 4 days ago
0 FENGYUN 1C DEB
1 32093U 99025CQK 26232.58035244  .00000678  00000-0  23127-3 0  9997
2 32093  98.8924  99.5797 0078337 334.0673  25.6596 14.38169492    87
Epoch: 2026-08-20T13:55Z
TLE epoch observation values (Epoch: 2026-08-20T13:55:42.450Z)
Latitude
-0.00007°
Longitude
-78.26459°
Altitude
717.124 km
Speed
7.523 km/s
True Right ascension
06h 38m 19s
True Declination
0° 00' 00"
Sunlit
Object was in daylight at epoch
Visualization orbit readout
Latitude
Unknown
Longitude
Unknown
Altitude
Unknown
Speed
Unknown
Apparent Right ascension
Unknown
Apparent Declination
Unknown
Sunlit
N/A
Visualization observer readout
Local Sidereal Time
23:54:46
Azimuth
Unknown
Elevation
Unknown
Doppler factor
Unknown
Orbital elements
Apogee altitude
817.627 km
Perigee altitude
705.765 km
Semi-major axis
7,139.833 km
Eccentricity
0.00783
Inclination
98.8924°
RAAN
99.5797°
Arg. of periapsis
334.0673°
True anomaly
26.05177°
Mean anomaly
25.6596°
Eccentric anomaly
25.85534°
Mean motion
3.59759 °/min
Orbital period
100.07 mins
BSTAR
0.00023127
Loading maneuver chart data...
Computing Atmospheric mass density...

Documentation

Showing up to 5 results
|